Voltar ao catálogo

FENGYUN 1C DEB

AtivoSSO
NORAD 30349·DEBRIS·🇨🇳 China

Lançado May 10, 1999 de Taiyuan Satellite Launch Center

Loading…

Próximas Passagens (próximas 24 horas)

TLE

AtualizadoSource: Space-Track

Época: Sep 13, 2026, 21:11 UTC

1 30349U 99025ABL 26256.88297594  .00002079  00000-0  11028-2 0  9999
2 30349  98.6010 212.9868 0086001 308.4509 114.6897 14.12797524  1082

Acompanhe FENGYUN 1C DEB em tempo real com AllMySat

Download on the App Store